Location: B�rgermoos
(47.6500°N, 9.0667°E)
Time: 00:23:44
(UTC+00:00)

Tiros 1 - Pass Details

Date: 13 August 2021
Orbit: 630 x 663 km, 48.4° (Epoch: 19 September)

Event Time Altitude Azimuth Distance (km) Brightness Sun altitude
Rises 18:08:16 0° 286° (WNW) 2,992 13.9 4.1°
Reaches altitude 10° 18:10:43 10° 280° (W) 2,074 12.2 3.7°
Maximum altitude 18:15:12 41° 210° (SSW) 945 8.2 3.0°
Drops below altitude 10° 18:19:39 10° 141° (SE) 2,049 9.2 2.3°
Sets 18:22:03 0° 134° (SE) 2,951 10.0 1.9°
